DW9866 Weather Reports


Display with metric or nautical units.
time (UTC)temp
F
wind
direction
speed
MPH
gust
MPH
rain 1hr
in
rain 24hr
in
rain mn
in
humidity
%
barometer
mb
20211017175657 48 297 5.0 16.0 0.00 0.35 0.00 88 1009.0
20211017175152 49 309 5.0 18.0 0.00 0.40 0.00 86 1009.0
20211017174654 49 293 2.0 18.0 0.00 0.45 0.00 85 1009.1
20211017174152 49 301 1.0 9.0 0.00 0.56 0.00 90 1009.1
20211017173652 48 294 2.0 12.0 0.00 0.56 0.00 91 1009.2
20211017173146 47 306 2.0 12.0 0.00 0.56 0.00 91 1009.3
20211017172645 47 287 2.0 12.0 0.00 0.57 0.00 93 1009.3
20211017172146 47 311 2.0 12.0 0.00 0.57 0.00 92 1009.3
20211017171645 47 308 4.0 16.0 0.00 0.57 0.00 92 1009.4
20211017171142 47 303 7.0 17.0 0.00 0.57 0.00 91 1009.4
20211017170636 47 298 7.0 17.0 0.00 0.57 0.00 89 1009.4
20211017170138 47 306 4.0 17.0 0.00 0.57 0.00 87 1009.4
20211017165638 48 300 0.0 16.0 0.00 0.57 0.00 89 1009.4
20211017165134 48 300 0.0 6.0 0.00 0.57 0.00 87 1009.4
20211017164618 48 291 1.0 13.0 0.00 0.57 0.00 86 1009.4
20211017164122 48 272 2.0 14.0 0.00 0.57 0.00 86 1009.4
20211017163616 48 285 2.0 14.0 0.00 0.57 0.00 87 1009.4
20211017163115 48 296 4.0 14.0 0.00 0.57 0.00 87 1009.6
20211017162604 48 294 4.0 14.0 0.00 0.57 0.00 86 1009.7
20211017162105 48 314 2.0 11.0 0.00 0.57 0.00 88 1009.8
20211017161606 48 291 1.0 10.0 0.00 0.57 0.00 89 1009.8
20211017161104 47 295 1.0 8.0 0.00 0.57 0.00 88 1009.8
20211017160605 47 304 1.0 7.0 0.00 0.57 0.00 88 1010.0
20211017160107 47 278 1.0 13.0 0.00 0.57 0.00 89 1010.0
20211017155600 46 283 1.0 13.0 0.00 0.57 0.00 90 1010.0
20211017155059 46 274 2.0 14.0 0.00 0.57 0.00 91 1010.1
20211017154557 46 281 2.0 14.0 0.00 0.57 0.00 90 1010.2
20211017154055 46 291 2.0 14.0 0.00 0.57 0.00 91 1010.2
20211017153556 46 283 2.0 16.0 0.00 0.57 0.00 91 1010.2
20211017153057 46 285 3.0 16.0 0.00 0.57 0.00 90 1010.1
20211017152557 46 282 4.0 12.0 0.00 0.57 0.00 90 1010.2
20211017152052 46 285 6.0 16.0 0.00 0.57 0.00 90 1010.1
20211017151552 46 269 6.0 18.0 0.00 0.57 0.00 92 1010.2
20211017151049 46 271 6.0 18.0 0.00 0.57 0.00 92 1010.1
20211017150548 46 302 4.0 13.0 0.00 0.57 0.00 92 1010.1
20211017150045 46 268 3.0 15.0 0.00 0.57 0.00 92 1010.2
20211017145545 46 282 4.0 15.0 0.00 0.57 0.00 93 1010.3
20211017145038 46 288 5.0 16.0 0.00 0.57 0.00 93 1010.2
20211017144529 45 307 6.0 17.0 0.00 0.57 0.00 94 1010.2
20211017144026 45 287 5.0 17.0 0.00 0.57 0.00 93 1010.3
20211017143526 45 283 6.0 15.0 0.00 0.57 0.00 93 1010.4
20211017143030 45 300 7.0 15.0 0.00 0.57 0.00 93 1010.4
20211017142528 45 288 4.0 15.0 0.00 0.57 0.00 93 1010.3
20211017142019 45 301 5.0 17.0 0.00 0.57 0.00 94 1010.3
20211017141517 45 288 6.0 19.0 0.00 0.57 0.00 94 1010.3
20211017141017 45 276 5.0 19.0 0.00 0.57 0.00 94 1010.2
20211017140517 45 279 3.0 14.0 0.00 0.57 0.00 96 1010.2
20211017140018 45 289 2.0 14.0 0.00 0.57 0.00 96 1010.2
20211017135516 45 273 2.0 11.0 0.00 0.57 0.00 97 1010.2
20211017135015 44 277 3.0 16.0 0.00 0.57 0.00 97 1010.1
20211017134516 44 258 2.0 16.0 0.00 0.57 0.00 96 1010.2
20211017134017 45 288 1.0 7.0 0.00 0.57 0.00 96 1010.3
20211017133514 44 294 1.0 10.0 0.00 0.57 0.00 96 1010.2
20211017133016 44 281 3.0 14.0 0.00 0.57 0.00 96 1010.3
20211017132514 44 264 3.0 14.0 0.00 0.57 0.00 96 1010.2
20211017132012 44 245 2.0 13.0 0.00 0.57 0.00 97 1010.2
20211017131512 44 276 2.0 11.0 0.00 0.57 0.00 97 1010.2
20211017131008 44 283 2.0 13.0 0.00 0.57 0.00 98 1010.2
20211017130504 44 275 2.0 13.0 0.00 0.57 0.00 98 1010.1
20211017130006 44 295 1.0 12.0 0.00 0.57 0.00 98 1010.1
20211017125458 44 285 1.0 12.0 0.00 0.57 0.00 98 1010.0
20211017125000 44 285 2.0 12.0 0.00 0.57 0.00 99 1010.0
20211017124459 44 288 2.0 15.0 0.00 0.57 0.00 99 1010.0
20211017123958 43 263 1.0 15.0 0.00 0.57 0.00 99 1010.0
20211017123458 43 297 1.0 11.0 0.00 0.57 0.00 100 1009.9
20211017122959 43 271 1.0 6.0 0.00 0.57 0.00 100 1009.8
20211017122500 43 275 0.0 6.0 0.00 0.57 0.00 100 1009.9
20211017121951 43 275 1.0 11.0 0.00 0.57 0.00 100 1010.0
20211017121453 43 285 1.0 11.0 0.00 0.57 0.00 100 1009.9
20211017120955 43 287 1.0 11.0 0.00 0.57 0.00 100 1009.9
20211017120451 43 285 1.0 11.0 0.00 0.57 0.00 100 1009.7
20211017115951 43 275 1.0 7.0 0.00 0.57 0.00 100 1009.7
20211017115450 43 300 1.0 9.0 0.00 0.57 0.00 100 1009.6
20211017114947 43 300 2.0 13.0 0.00 0.57 0.00 100 1009.6
20211017114450 43 295 1.0 13.0 0.00 0.57 0.00 100 1009.7
20211017113942 43 283 0.0 5.0 0.00 0.57 0.00 100 1009.6
20211017113437 43 282 1.0 6.0 0.00 0.57 0.00 100 1009.6
20211017112938 43 278 1.0 10.0 0.00 0.57 0.00 100 1009.7
20211017112435 43 291 1.0 12.0 0.00 0.57 0.00 100 1009.6
20211017111930 43 255 1.0 12.0 0.00 0.57 0.00 100 1009.6
20211017111432 43 262 0.0 8.0 0.00 0.57 0.00 100 1009.4
20211017110933 43 293 2.0 11.0 0.00 0.57 0.00 100 1009.4
20211017110431 43 291 2.0 11.0 0.00 0.57 0.00 100 1009.6
20211017105925 42 280 0.0 8.0 0.00 0.57 0.00 100 1009.4
20211017105428 42 269 0.0 7.0 0.00 0.57 0.00 100 1009.4
20211017104926 42 226 0.0 7.0 0.00 0.57 0.00 100 1009.3
20211017104423 42 262 0.0 8.0 0.00 0.57 0.00 100 1009.2
20211017103924 42 264 0.0 8.0 0.00 0.57 0.00 100 1009.2
20211017103417 43 254 1.0 12.0 0.00 0.57 0.00 100 1009.3
20211017102920 42 257 2.0 12.0 0.00 0.57 0.00 100 1009.3
20211017102415 42 270 1.0 7.0 0.00 0.57 0.00 100 1009.3
20211017101912 42 292 1.0 10.0 0.00 0.57 0.00 100 1009.2
20211017101412 42 297 1.0 12.0 0.00 0.57 0.00 100 1009.1
20211017100905 43 295 1.0 12.0 0.00 0.57 0.00 100 1009.1
20211017100406 43 289 1.0 9.0 0.00 0.57 0.00 100 1009.2
20211017095904 43 284 1.0 13.0 0.00 0.57 0.00 100 1009.2
20211017095404 43 293 2.0 13.0 0.00 0.57 0.00 100 1009.1
20211017094904 43 291 2.0 10.0 0.00 0.57 0.00 100 1009.2
20211017094407 43 280 1.0 10.0 0.00 0.57 0.00 100 1009.1
20211017093900 43 286 2.0 9.0 0.00 0.57 0.00 100 1009.2
20211017093357 43 271 2.0 9.0 0.00 0.57 0.00 100 1009.2
20211017092901 43 299 2.0 13.0 0.00 0.57 0.00 100 1009.2
20211017092356 43 277 2.0 13.0 0.00 0.57 0.00 99 1009.1
20211017091856 43 293 3.0 12.0 0.00 0.57 0.00 99 1009.1
20211017091356 43 303 3.0 13.0 0.00 0.57 0.00 99 1009.1
20211017090857 43 291 3.0 14.0 0.00 0.57 0.00 99 1009.0
20211017090352 43 265 2.0 14.0 0.00 0.57 0.00 99 1009.0
20211017085850 43 265 2.0 13.0 0.00 0.57 0.00 98 1008.9
20211017085349 43 283 2.0 13.0 0.00 0.57 0.00 98 1008.9
20211017084842 43 278 1.0 12.0 0.00 0.57 0.00 98 1008.9
20211017084341 43 288 1.0 8.0 0.00 0.57 0.00 98 1008.8
20211017083839 43 295 1.0 8.0 0.00 0.57 0.00 98 1008.7
20211017083340 43 297 1.0 8.0 0.00 0.57 0.00 98 1008.8
20211017082838 43 295 1.0 7.0 0.00 0.57 0.00 98 1008.7
20211017082329 43 268 0.0 8.0 0.00 0.57 0.00 98 1008.8
20211017081832 43 276 0.0 8.0 0.00 0.57 0.00 98 1008.8
20211017081330 43 293 1.0 7.0 0.00 0.57 0.00 99 1008.8
20211017080827 43 290 1.0 8.0 0.00 0.57 0.00 99 1008.9
20211017080325 43 277 1.0 11.0 0.00 0.57 0.00 99 1008.9
20211017075825 43 266 1.0 11.0 0.00 0.57 0.00 99 1008.9
20211017075324 43 306 0.0 8.0 0.00 0.57 0.00 99 1008.8
20211017074816 43 313 0.0 6.0 0.00 0.57 0.00 99 1008.7
20211017074317 43 314 1.0 8.0 0.00 0.57 0.00 99 1008.8
20211017073816 43 304 1.0 11.0 0.00 0.57 0.00 98 1008.8
20211017073311 44 304 2.0 13.0 0.00 0.57 0.00 98 1008.9
20211017072811 44 294 2.0 12.0 0.00 0.57 0.00 98 1009.0
20211017072305 44 301 2.0 12.0 0.00 0.57 0.00 98 1009.0
20211017071800 44 299 0.0 11.0 0.00 0.57 0.00 99 1009.0
20211017071301 43 298 0.0 11.0 0.00 0.57 0.00 99 1008.9
20211017070802 44 302 0.0 0.0 0.00 0.57 0.00 99 1009.0
20211017070259 44 302 0.0 0.0 0.00 0.57 0.00 99 1009.0
20211017065753 44 343 0.0 0.0 0.00 0.57 0.00 99 1008.9
20211017065252 44 311 1.0 4.0 0.00 0.57 0.00 98 1008.9
20211017064740 44 319 1.0 12.0 0.00 0.57 0.00 98 1009.0
20211017064236 44 310 2.0 12.0 0.00 0.57 0.00 98 1009.0
20211017063738 44 324 2.0 10.0 0.00 0.57 0.00 98 1008.9
20211017063232 44 331 2.0 10.0 0.00 0.57 0.00 98 1008.9
20211017062729 44 321 2.0 12.0 0.00 0.57 0.00 99 1009.0
20211017062226 44 309 4.0 14.0 0.00 0.57 0.00 99 1009.0
20211017061724 44 319 5.0 14.0 0.00 0.57 0.00 99 1009.0
20211017061226 44 312 5.0 16.0 0.00 0.57 0.00 99 1009.0
20211017060719 44 304 5.0 16.0 0.00 0.57 0.00 99 1009.1
20211017060220 44 320 5.0 16.0 0.00 0.57 0.00 99 1009.2
20211017055717 44 322 4.0 16.0 0.00 0.57 0.00 98 1009.1
20211017055218 44 300 2.0 15.0 0.00 0.57 0.00 98 1009.2
20211017054710 44 321 1.0 11.0 0.00 0.57 0.00 98 1009.4
20211017054211 45 316 1.0 9.0 0.00 0.57 0.00 98 1009.4
20211017053659 45 314 1.0 9.0 0.00 0.57 0.00 97 1009.6
20211017053152 45 319 1.0 8.0 0.00 0.57 0.00 97 1009.6
20211017052654 45 308 1.0 6.0 0.00 0.57 0.00 97 1009.6
20211017052150 45 303 1.0 9.0 0.00 0.57 0.00 97 1009.7
20211017051649 45 311 1.0 9.0 0.00 0.57 0.00 97 1009.6
20211017051147 45 283 1.0 10.0 0.00 0.57 0.00 96 1009.6
20211017050644 45 308 1.0 10.0 0.00 0.57 0.00 96 1009.4
20211017050141 45 321 2.0 13.0 0.00 0.57 0.00 96 1009.4
20211017045641 46 340 2.0 13.0 0.00 0.57 0.00 96 1009.4
20211017045136 46 306 4.0 16.0 0.00 0.57 0.00 95 1009.6
20211017044635 46 307 4.0 16.0 0.00 0.57 0.00 95 1009.6
20211017044132 46 305 4.0 17.0 0.00 0.57 0.00 94 1009.4
20211017043630 46 300 4.0 17.0 0.00 0.57 0.00 94 1009.6
20211017043127 46 304 4.0 13.0 0.00 0.57 0.00 93 1009.6
20211017042624 46 323 3.0 13.0 0.00 0.57 0.00 93 1009.7
20211017042122 47 300 3.0 12.0 0.00 0.57 0.00 93 1009.7
20211017041619 47 304 3.0 17.0 0.00 0.57 0.00 93 1009.7
20211017041117 47 304 3.0 17.0 0.00 0.57 0.00 93 1009.7
20211017040615 47 294 2.0 12.0 0.00 0.57 0.00 93 1009.7
20211017040113 46 300 2.0 12.0 0.00 0.57 0.57 93 1009.6
20211017035610 46 297 1.0 11.0 0.00 0.57 0.57 92 1009.7
20211017035113 46 302 0.0 6.0 0.00 0.57 0.57 93 1009.7
20211017034610 46 315 0.0 6.0 0.00 0.57 0.57 93 1009.8
20211017034106 46 312 0.0 6.0 0.00 0.57 0.57 93 1009.7
20211017033605 46 306 1.0 7.0 0.00 0.57 0.57 92 1009.7
20211017033104 46 300 1.0 7.0 0.00 0.57 0.57 92 1009.7
20211017032604 46 301 1.0 10.0 0.00 0.57 0.57 93 1009.6
20211017032101 46 306 1.0 11.0 0.00 0.57 0.57 93 1009.7
20211017031600 46 309 2.0 13.0 0.00 0.57 0.57 93 1009.7
20211017031102 46 330 3.0 13.0 0.00 0.57 0.57 93 1009.4
20211017030557 46 328 4.0 14.0 0.00 0.57 0.57 93 1009.6
20211017030100 47 310 4.0 16.0 0.00 0.57 0.57 93 1009.6
20211017025548 47 316 5.0 16.0 0.00 0.57 0.57 93 1009.4
20211017025048 47 334 5.0 14.0 0.00 0.57 0.57 93 1009.4
20211017024549 47 349 4.0 14.0 0.00 0.57 0.57 93 1009.3
20211017024043 46 16 3.0 15.0 0.00 0.57 0.57 94 1009.2
20211017023540 46 352 4.0 15.0 0.00 0.57 0.57 94 1009.4
20211017023039 46 352 2.0 11.0 0.00 0.57 0.57 94 1009.4
20211017022539 46 327 2.0 9.0 0.00 0.57 0.57 94 1009.3
20211017022039 46 348 3.0 14.0 0.00 0.57 0.57 94 1009.4
20211017021539 46 324 3.0 14.0 0.00 0.57 0.57 94 1009.3
20211017021040 46 333 4.0 14.0 0.00 0.57 0.57 94 1009.2
20211017020538 47 329 5.0 14.0 0.00 0.57 0.57 94 1009.1
20211017020038 47 319 4.0 15.0 0.00 0.57 0.57 94 1009.3
20211017015523 47 332 4.0 15.0 0.00 0.57 0.57 94 1009.2
20211017015021 47 330 4.0 12.0 0.00 0.57 0.57 95 1009.1
20211017014520 47 329 4.0 16.0 0.00 0.57 0.57 95 1009.0
20211017014020 47 290 3.0 16.0 0.00 0.57 0.57 96 1009.0
20211017013518 47 327 2.0 12.0 0.00 0.57 0.57 98 1009.1
20211017013018 47 319 3.0 16.0 0.00 0.57 0.57 99 1009.0
20211017012519 47 331 4.0 16.0 0.00 0.57 0.57 100 1009.1
20211017012016 47 321 4.0 18.0 0.00 0.57 0.57 100 1009.0
20211017011514 47 330 6.0 18.0 0.00 0.57 0.57 100 1008.7
20211017011014 47 342 5.0 16.0 0.00 0.57 0.57 100 1008.5
20211017010514 47 339 5.0 23.0 0.00 0.57 0.57 100 1008.9
20211017010012 47 359 7.0 23.0 0.00 0.57 0.57 100 1008.4
20211017005510 47 324 9.0 22.0 0.00 0.57 0.57 100 1008.1
20211017005012 47 305 9.0 22.0 0.00 0.57 0.57 100 1008.6
20211017004507 48 350 8.0 20.0 0.00 0.57 0.57 100 1008.2
20211017004005 48 328 6.0 20.0 0.00 0.57 0.57 100 1007.4
20211017003507 49 332 7.0 18.0 0.00 0.57 0.57 100 1008.1
20211017003005 49 340 9.0 18.0 0.00 0.57 0.57 100 1007.4
20211017002504 49 330 7.0 23.0 0.00 0.57 0.57 100 1008.0
20211017002005 49 328 7.0 23.0 0.00 0.57 0.57 100 1007.9
20211017001507 49 327 5.0 14.0 0.00 0.57 0.57 100 1007.7
20211017000957 50 347 5.0 17.0 0.00 0.57 0.57 100 1007.5
20211017000455 50 338 6.0 17.0 0.00 0.57 0.57 100 1007.5
20211016235955 50 342 6.0 17.0 0.00 0.57 0.57 100 1007.5
20211016235455 50 323 6.0 16.0 0.00 0.57 0.57 100 1007.4
20211016234958 50 325 4.0 16.0 0.00 0.57 0.57 100 1007.6
20211016234454 51 327 3.0 13.0 0.00 0.57 0.57 100 1007.6
20211016233951 51 330 4.0 13.0 0.00 0.57 0.57 100 1008.0
20211016233451 51 340 7.0 16.0 0.01 0.57 0.57 100 1007.1
20211016232952 51 337 9.0 20.0 0.01 0.57 0.57 100 1007.0
20211016232445 51 338 9.0 20.0 0.01 0.57 0.57 100 1007.0
20211016231941 51 342 8.0 20.0 0.02 0.57 0.57 100 1006.9
20211016231441 51 332 9.0 20.0 0.02 0.57 0.57 100 1007.3
20211016230942 51 347 9.0 20.0 0.03 0.57 0.57 100 1007.1
20211016230444 51 340 8.0 18.0 0.04 0.57 0.57 100 1007.0
20211016225940 51 5 8.0 18.0 0.04 0.57 0.57 100 1007.2
20211016225438 51 316 7.0 18.0 0.05 0.57 0.57 100 1007.1
20211016224940 51 340 8.0 18.0 0.06 0.57 0.57 100 1007.3
20211016224433 51 335 9.0 21.0 0.08 0.57 0.57 100 1007.4
20211016223931 51 339 9.0 21.0 0.09 0.57 0.57 100 1007.1
20211016223428 51 350 9.0 18.0 0.09 0.56 0.56 100 1007.0
20211016222928 51 319 7.0 18.0 0.12 0.56 0.56 100 1007.0
20211016222424 51 340 5.0 15.0 0.18 0.56 0.56 100 1007.1
20211016221916 51 327 4.0 15.0 0.23 0.55 0.55 100 1007.2
20211016221418 51 345 6.0 15.0 0.26 0.55 0.55 100 1007.2
20211016220916 51 323 7.0 15.0 0.28 0.54 0.54 100 1006.8
20211016220414 51 9 8.0 20.0 0.28 0.53 0.53 100 1006.4
20211016215914 51 339 12.0 25.0 0.28 0.53 0.53 100 1005.9
20211016215414 51 12 16.0 26.0 0.27 0.52 0.52 100 1005.6
20211016214912 51 304 17.0 27.0 0.26 0.51 0.51 100 1006.0
20211016214410 51 339 18.0 31.0 0.24 0.49 0.49 100 1006.1
20211016213910 52 342 18.0 31.0 0.24 0.48 0.48 100 1006.3
20211016213406 52 338 15.0 32.0 0.23 0.47 0.47 100 1006.1
20211016212906 55 330 8.0 32.0 0.20 0.44 0.44 100 1006.3
20211016212404 56 296 3.0 13.0 0.12 0.36 0.37 100 1005.7
20211016211905 56 286 5.0 20.0 0.07 0.31 0.32 100 1005.6
20211016211405 56 293 5.0 20.0 0.04 0.27 0.28 100 1005.5
20211016210903 56 302 4.0 17.0 0.03 0.26 0.26 100 1005.5
20211016210402 56 300 4.0 16.0 0.03 0.25 0.25 100 1005.3
20211016205859 56 305 3.0 13.0 0.03 0.25 0.25 100 1004.8
20211016205401 56 301 4.0 17.0 0.03 0.25 0.25 100 1004.4
20211016204900 56 300 6.0 17.0 0.03 0.25 0.25 100 1004.5
20211016204358 56 275 4.0 16.0 0.03 0.25 0.25 100 1004.8
20211016203856 56 265 2.0 13.0 0.02 0.24 0.24 100 1005.0
20211016203356 56 281 3.0 16.0 0.02 0.24 0.24 100 1004.8
20211016202855 56 279 2.0 16.0 0.02 0.24 0.24 100 1004.9
20211016202354 56 255 3.0 20.0 0.02 0.24 0.24 100 1004.9
20211016201854 56 288 6.0 20.0 0.02 0.24 0.24 100 1004.8
20211016201358 56 267 6.0 16.0 0.01 0.23 0.23 100 1005.0
20211016200855 56 269 5.0 14.0 0.01 0.23 0.23 100 1005.0
20211016200355 56 295 4.0 12.0 0.00 0.22 0.22 100 1004.8
20211016195854 56 281 5.0 16.0 0.00 0.22 0.22 100 1004.9
20211016195356 56 233 4.0 16.0 0.00 0.22 0.22 100 1004.9
20211016194856 56 292 4.0 14.0 0.00 0.22 0.22 100 1004.5
20211016194355 56 288 3.0 14.0 0.00 0.22 0.22 100 1004.8
20211016193846 56 321 2.0 12.0 0.00 0.22 0.22 100 1004.8
20211016193344 57 255 4.0 16.0 0.00 0.22 0.22 100 1004.8
20211016192842 57 254 4.0 16.0 0.00 0.22 0.22 100 1004.8
20211016192341 56 257 2.0 14.0 0.00 0.22 0.22 100 1004.5
20211016191843 57 275 1.0 6.0 0.00 0.22 0.22 100 1004.4
20211016191336 57 258 1.0 9.0 0.00 0.22 0.22 100 1004.2
20211016190831 57 231 1.0 9.0 0.00 0.22 0.22 100 1004.1
20211016190330 57 254 0.0 8.0 0.00 0.22 0.22 100 1004.2
20211016185832 57 269 0.0 6.0 0.00 0.22 0.22 100 1004.2
20211016185330 57 259 0.0 5.0 0.02 0.22 0.22 100 1003.9
20211016184827 57 245 0.0 5.0 0.08 0.22 0.22 100 1004.1
20211016184325 57 278 1.0 11.0 0.20 0.22 0.22 100 1004.1
20211016183826 57 275 1.0 11.0 0.21 0.22 0.22 100 1004.2
20211016183326 57 120 1.0 13.0 0.21 0.22 0.22 100 1004.0
20211016182822 57 234 3.0 16.0 0.22 0.22 0.22 100 1004.3
20211016182324 57 243 5.0 18.0 0.22 0.22 0.22 100 1004.3
20211016181821 57 277 3.0 18.0 0.22 0.22 0.22 100 1004.3
20211016181321 57 265 4.0 16.0 0.22 0.22 0.22 100 1004.2
20211016180819 56 264 7.0 19.0 0.22 0.22 0.22 100 1004.3
20211016180318 56 278 8.0 23.0 0.22 0.22 0.22 100 1004.2